Regional Weather Roundup
Issued by NWS

Home | Current Version | Previous Version | Text Only | Print | Product List | Glossary Off
Versions: 1 2 3 4 5 6 7 8 9 10 11 12 13 14 15 16 17 18 19 20 21 22 23 24 25 26 27 28 29 30 31 32 33 34 35 36 37 38 39 40 41 42 43 44 45 46 47 48 49 50

000
ASUS45 KBOU 060307
RWRCO

WEATHER ROUNDUP FOR COLORADO
NATIONAL WEATHER SERVICE DENVER/BOULDER CO
800 PM MST MON DEC 05 2016

NOTE: "FAIR" INDICATES FEW OR NO CLOUDS BELOW 12000 FEET WITH NO
SIGNIFICANT WEATHER AND/OR OBSTRUCTIONS TO VISIBILITY.

COZ001>005-013-030-031-060400-
...NORTHWEST COLORADO...

CITY           SKY/WX    TMP DP  RH WIND       PRES   REMARKS
CRAIG          FAIR       8  -6  52 W3        29.97R
HAYDEN         MOCLDY    10  -8  44 SW3       29.93F
MEEKER         FAIR      10   2  69 CALM      29.96R
MOUNT WERNER   NOT AVBL
STEAMBOAT SPGS CLOUDY    13  -7  41 CALM      29.92S
WALDEN           N/A      3 -13  47 SW7       29.85R WCI  -9
$$

COZ006>008-011-060400-
...WEST CENTRAL VALLEYS...

CITY           SKY/WX    TMP DP  RH WIND       PRES   REMARKS
GRAND JUNCTION FAIR      28   7  41 W8        29.95R WCI  20
MONTROSE       FAIR      28  11  48 CALM      29.93R
EAGLE          CLOUDY    20   7  57 E8        29.92R WCI  10
RIFLE          CLOUDY    27   4  37 NW16G24   29.94R WCI  15
DELTA          FAIR      35   8  32 W12       29.91R WCI  26
NUCLA          FAIR      32  18  55 NW5       29.93R WCI  27
$$

COZ017>023-064>068-060400-
...SOUTHWEST COLORADO...

CITY           SKY/WX    TMP DP  RH WIND       PRES   REMARKS
DURANGO        FAIR      33  16  49 W7        29.86R WCI  27
CORTEZ         FAIR      28  21  75 NE6       29.88S WCI  22
PAGOSA SPRINGS FAIR      33  11  40 SW5       29.88R WCI  28
TELLURIDE      NOT AVBL
WOLF CREEK PAS FAIR      12   1  62 SW10G17   29.91S WCI  -1
$$

COZ009-010-012-014-032>034-037-058>063-060400-
...CENTRAL COLORADO...

CITY           SKY/WX    TMP DP  RH WIND       PRES   REMARKS
ASPEN          CLOUDY    19  11  70 CALM      29.85R
BUENA VISTA    FAIR      29  -1  27 W10G28    29.77R WCI  20
COPPER MTN       N/A      9   1  72 MISG      29.68S
BERTHOUD PASS  SNOW      -9 -22  54 N20G28    29.62S VSB 1/2 WCI -34
COTTONWOOD PAS FAIR      27  -4  26 NW7G33    29.75R WCI  19
GUNNISON       FAIR      24  10  55 W5        29.85  WCI  18
KREMMLING      CLOUDY    19 -13  23 N3        29.91R
LEADVILLE      CLOUDY    13   7  77 NW12G20   29.72R WCI  -1
MONARCH PASS   CLOUDY    10   3  72 SW29G38   29.85R WCI -11
SALIDA         FAIR      32   5  32 W10G16    29.88R WCI  24
SUNLIGHT       LGT SNOW   3   1  92 SW9G18    29.82R WCI -11
WILKERSON PASS MOCLDY    14   0  52 SW13G23   29.72F WCI   0
$$

COZ069>075-060400-
...SAN LUIS VALLEY/SANGRE DE CRISTO MOUNTAINS...

CITY           SKY/WX    TMP DP  RH WIND       PRES   REMARKS
ALAMOSA        FAIR      23  14  68 E3        29.83R
LA VETA PASS   FAIR      23  12  63 NE17G25   29.84S WCI   9
SAGUACHE       FAIR      27  10  50 NW9       29.83S WCI  17
$$

COZ035-036-038>040-060400-
...NORTHERN COLORADO FRONT RANGE...

CITY           SKY/WX    TMP DP  RH WIND       PRES   REMARKS
DENVER INTL AP FAIR      24   1  36 N22       29.81R WCI   9
DMNS CITY PARK   N/A     25   3  38 SE8       29.82R WCI  16
AURORA         PTCLDY    21   2  43 NE14      29.81R WCI   8
FRONT RANGE AP MOCLDY    27  -2  28 N22G30    29.84R WCI  12
ERIE MUNI ARPT CLOUDY    29  -1  27 W13       29.85R WCI  19
BOULDER MUN AP FAIR      30   0  27 SW15G29   29.82R WCI  19
CENTENNIAL     FAIR      21   0  39 E13       29.81R WCI   9
BROOMFIELD     MOCLDY    27   3  36 W6        29.83  WCI  20
FORT COLLINS   FAIR      27  -2  28 NW25G32   29.84R WCI  11
LONGMONT       FAIR      30   2  30 S9G22     29.87R WCI  21
$$

COZ041-046-047-076>085-087-088-060400-
...PIKES PEAK/PALMER DIVIDE AND SOUTHERN FOOTHILLS...

CITY           SKY/WX    TMP DP  RH WIND       PRES   REMARKS
COLO. SPRINGS  FAIR      22  -2  35 NE20G33   29.79R WCI   7
A. F. ACADEMY  FAIR      20   0  41 N14       29.81R WCI   7
SCHRIEVER AFB  NOT AVBL
ELLICOTT       FAIR     N/A N/A N/A NE24G35   29.77S
FALCON         FAIR      18  -4  38 N15G22    29.81R WCI   3
FORT CARSON    FAIR      24   1  37 N15       29.79R WCI  11
LIMON          FAIR      20   4  50 N17G25    29.86R WCI   5
MONUMENT HILL  FAIR      14  -2  48 E14       29.82R WCI  -1
TRINIDAD       FAIR      38  18  44 NE21G41   29.81R
$$

COZ042>045-048>051-090-091-060400-
...NORTHEAST COLORADO...

CITY           SKY/WX    TMP DP  RH WIND       PRES   REMARKS
GREELEY ARPT   FAIR      26  -5  25 NW25      29.86R WCI  11
AKRON          FAIR      20   8  60 N10       29.89R WCI   9
BURLINGTON     FAIR      28  11  48 N16G29    29.88R WCI  16
WRAY           NOT AVBL
STERLING       MOCLDY    25  12  58 N12       29.91R WCI  14
HOLYOKE        FAIR      28  14  54 N15       29.92R WCI  17
FORT MORGAN    CLOUDY    24   4  41 N9        29.91R WCI  15
$$

COZ086-089-092>099-060400-
...SOUTHEAST COLORADO...

CITY           SKY/WX    TMP DP  RH WIND       PRES   REMARKS
PUEBLO         FAIR      30   2  30 E9        29.83R WCI  22
LA JUNTA       FAIR      34  -1  22 NE20      29.85R WCI  23
LAMAR          FAIR      33   8  35 NE16G30   29.85R WCI  23
SPRINGFIELD      N/A     33  -1  23 N28G40    29.80R WCI  20
$$



USA.gov is the U.S. government's official web portal to all federal, state and local government web resources and services.